Time,TemperatureF,DewpointF,PressureIn,WindDirection,WindDirectionDegrees,WindSpeedMPH,WindSpeedGustMPH,Humidity,HourlyPrecipIn,Conditions,Clouds,dailyrainin,SolarRadiationWatts/m^2,SoftwareType,DateUTC
2013-08-03 00:00:00,76.6,72.8,30.00,SSE,157,0.0,0.0,88,0.00,,SCT040,0.05,0.00,VWS V14.00,2013-08-03 04:00:00,
2013-08-03 00:01:00,76.6,72.8,30.00,SSE,158,0.0,0.0,88,0.00,,SCT120,0.05,0.00,VWS V14.00,2013-08-03 04:01:00,
2013-08-03 00:02:00,76.6,72.8,30.00,SSE,158,0.0,0.0,88,0.00,,SCT120,0.00,0.00,VWS V14.00,2013-08-03 04:02:00,
2013-08-03 00:06:00,76.6,72.8,30.00,SSE,157,0.0,0.0,88,0.00,,SCT120,0.00,0.00,VWS V14.00,2013-08-03 04:06:00,
2013-08-03 00:12:00,76.6,72.8,30.00,SSE,158,0.0,0.0,88,0.00,,SCT120,0.00,0.00,VWS V14.00,2013-08-03 04:12:00,
2013-08-03 00:17:00,76.5,72.7,30.00,SSE,158,0.0,0.0,88,0.00,,SCT120,0.00,0.00,VWS V14.00,2013-08-03 04:17:00,
2013-08-03 00:22:00,76.5,72.7,30.00,SSE,157,0.0,0.0,88,0.00,,SCT120,0.00,0.00,VWS V14.00,2013-08-03 04:22:00,
2013-08-03 00:27:00,76.4,72.6,30.00,SSE,158,0.0,0.0,88,0.00,,SCT120,0.00,0.00,VWS V14.00,2013-08-03 04:27:00,
2013-08-03 00:30:00,76.4,72.6,30.00,SSE,157,0.0,0.0,88,0.00,,SCT040,0.00,0.00,VWS V14.00,2013-08-03 04:30:00,
2013-08-03 00:32:00,76.4,72.9,30.00,SSE,157,0.0,0.0,89,0.00,,SCT120,0.00,0.00,VWS V14.00,2013-08-03 04:32:00,
2013-08-03 00:37:00,76.4,72.9,30.00,SSE,157,0.0,0.0,89,0.00,,SCT120,0.00,0.00,VWS V14.00,2013-08-03 04:37:00,
2013-08-03 00:42:00,76.5,73.0,30.01,SSE,158,0.0,0.0,89,0.00,,SCT120,0.00,0.00,VWS V14.00,2013-08-03 04:42:00,
2013-08-03 00:47:00,76.6,73.1,30.01,SSE,157,0.0,0.0,89,0.00,,SCT120,0.00,0.00,VWS V14.00,2013-08-03 04:47:00,
2013-08-03 00:52:00,76.6,73.1,30.00,SSE,157,0.0,0.0,89,0.00,,SCT120,0.00,0.00,VWS V14.00,2013-08-03 04:52:00,
2013-08-03 00:57:00,76.6,73.1,30.01,SSE,157,0.0,0.0,89,0.00,,SCT120,0.00,0.00,VWS V14.00,2013-08-03 04:57:00,
2013-08-03 01:00:00,76.6,73.1,30.00,SSE,157,0.0,0.0,89,0.00,,SCT040,0.00,0.00,VWS V14.00,2013-08-03 05:00:00,
2013-08-03 01:02:00,76.6,73.1,30.01,SSE,158,0.0,0.0,89,0.00,,SCT120,0.00,0.00,VWS V14.00,2013-08-03 05:02:00,
2013-08-03 01:07:00,76.6,73.1,30.00,SSE,157,0.0,0.0,89,0.00,,SCT120,0.00,0.00,VWS V14.00,2013-08-03 05:07:00,
2013-08-03 01:12:00,76.5,73.0,30.00,SSE,157,0.0,0.0,89,0.00,,SCT120,0.00,0.00,VWS V14.00,2013-08-03 05:12:00,
2013-08-03 01:17:00,76.5,73.0,30.00,SSE,158,0.0,0.0,89,0.00,,SCT120,0.00,0.00,VWS V14.00,2013-08-03 05:17:00,
2013-08-03 01:22:00,76.5,73.0,30.00,SSE,157,0.0,0.0,89,0.00,,SCT120,0.00,0.00,VWS V14.00,2013-08-03 05:22:00,
2013-08-03 01:27:00,76.5,73.0,30.00,SSE,157,0.0,0.0,89,0.00,,SCT120,0.00,0.00,VWS V14.00,2013-08-03 05:27:00,
2013-08-03 01:30:00,76.5,73.0,30.00,SSE,158,0.0,0.0,89,0.00,,SCT040,0.00,0.00,VWS V14.00,2013-08-03 05:30:00,
2013-08-03 01:32:00,76.5,73.0,30.00,SSE,158,0.0,0.0,89,0.00,,SCT120,0.00,0.00,VWS V14.00,2013-08-03 05:32:00,
2013-08-03 01:37:00,76.7,73.2,30.01,SSE,158,0.0,0.0,89,0.00,,SCT120,0.00,0.00,VWS V14.00,2013-08-03 05:37:00,
2013-08-03 01:42:00,76.8,73.3,30.01,SSE,157,0.0,0.0,89,0.00,,SCT120,0.00,0.00,VWS V14.00,2013-08-03 05:42:00,
2013-08-03 01:47:00,76.9,73.4,30.00,SSE,157,0.0,0.0,89,0.00,,SCT120,0.00,0.00,VWS V14.00,2013-08-03 05:47:00,
2013-08-03 01:52:00,76.8,73.3,30.01,SSE,158,0.0,0.0,89,0.00,,SCT120,0.00,0.00,VWS V14.00,2013-08-03 05:52:00,
2013-08-03 01:57:00,76.7,73.2,30.01,SSE,157,0.0,0.0,89,0.00,,SCT120,0.00,0.00,VWS V14.00,2013-08-03 05:57:00,
2013-08-03 02:00:00,76.7,73.2,30.01,SSE,158,0.0,0.0,89,0.00,,SCT040,0.00,0.00,VWS V14.00,2013-08-03 06:00:00,
2013-08-03 02:02:00,76.7,73.2,30.01,SSE,157,0.0,0.0,89,0.00,,SCT120,0.00,0.00,VWS V14.00,2013-08-03 06:02:00,
2013-08-03 02:07:00,76.7,73.2,30.01,SSE,158,0.0,0.0,89,0.00,,SCT120,0.00,0.00,VWS V14.00,2013-08-03 06:07:00,
2013-08-03 02:12:00,76.8,73.3,30.01,SSE,158,0.0,0.0,89,0.00,,SCT120,0.00,0.00,VWS V14.00,2013-08-03 06:12:00,
2013-08-03 02:17:00,76.7,73.2,30.01,SSE,158,0.0,0.0,89,0.00,,SCT120,0.00,0.00,VWS V14.00,2013-08-03 06:17:00,
2013-08-03 02:22:00,76.8,73.3,30.01,SSE,157,0.0,0.0,89,0.00,,SCT120,0.00,0.00,VWS V14.00,2013-08-03 06:22:00,
2013-08-03 02:27:00,77.0,73.5,30.00,SSE,158,0.0,0.0,89,0.00,,SCT120,0.00,0.00,VWS V14.00,2013-08-03 06:27:00,
2013-08-03 02:30:00,77.0,73.5,30.01,SSE,158,0.0,0.0,89,0.00,,SCT040,0.00,0.00,VWS V14.00,2013-08-03 06:30:00,
2013-08-03 02:32:00,77.0,73.5,30.01,SSE,158,0.0,0.0,89,0.00,,SCT120,0.00,0.00,VWS V14.00,2013-08-03 06:32:00,
2013-08-03 02:37:00,77.1,73.6,30.01,SSE,157,0.0,0.0,89,0.00,,SCT120,0.00,0.00,VWS V14.00,2013-08-03 06:37:00,
2013-08-03 02:42:00,77.0,73.5,30.00,SSE,157,0.0,0.0,89,0.00,,SCT120,0.00,0.00,VWS V14.00,2013-08-03 06:42:00,
2013-08-03 02:47:00,77.0,73.5,30.00,SSE,157,0.0,0.0,89,0.00,,SCT120,0.00,0.00,VWS V14.00,2013-08-03 06:47:00,
2013-08-03 02:52:00,77.0,73.5,30.00,SSE,158,0.0,0.0,89,0.00,,SCT120,0.00,0.00,VWS V14.00,2013-08-03 06:52:00,
2013-08-03 02:57:00,77.0,73.5,30.00,SSE,158,0.0,0.0,89,0.00,,SCT120,0.00,0.00,VWS V14.00,2013-08-03 06:57:00,
2013-08-03 03:00:00,77.0,73.5,30.00,SSE,158,0.0,0.0,89,0.00,,SCT040,0.00,0.00,VWS V14.00,2013-08-03 07:00:00,
2013-08-03 03:03:00,77.0,73.5,30.00,SSE,157,0.0,1.0,89,0.00,,SCT120,0.00,0.00,VWS V14.00,2013-08-03 07:03:00,
2013-08-03 03:08:00,77.1,73.6,29.99,SSE,158,0.0,0.0,89,0.00,,SCT120,0.00,0.00,VWS V14.00,2013-08-03 07:08:00,
2013-08-03 03:13:00,77.1,73.6,29.99,SSE,158,0.0,0.0,89,0.00,,SCT120,0.00,0.00,VWS V14.00,2013-08-03 07:13:00,
2013-08-03 03:18:00,77.1,73.6,29.99,SSE,157,0.0,0.0,89,0.00,,SCT120,0.00,0.00,VWS V14.00,2013-08-03 07:18:00,
2013-08-03 03:23:00,77.2,73.7,29.99,SSE,158,0.0,0.0,89,0.00,,SCT120,0.00,0.00,VWS V14.00,2013-08-03 07:23:00,
2013-08-03 03:28:00,77.2,73.7,29.99,SSE,158,0.0,0.0,89,0.00,,SCT120,0.00,0.00,VWS V14.00,2013-08-03 07:28:00,
2013-08-03 03:33:00,77.2,73.7,29.98,SSE,157,0.0,0.0,89,0.00,,SCT120,0.00,0.00,VWS V14.00,2013-08-03 07:33:00,
2013-08-03 03:38:00,77.2,73.7,29.99,SSE,158,0.0,0.0,89,0.00,,SCT120,0.00,0.00,VWS V14.00,2013-08-03 07:38:00,
2013-08-03 03:43:00,77.3,73.8,29.98,SSE,157,0.0,1.0,89,0.00,,SCT120,0.00,0.00,VWS V14.00,2013-08-03 07:43:00,
2013-08-03 03:48:00,77.3,73.8,29.99,SSE,158,0.0,0.0,89,0.00,,SCT120,0.00,0.00,VWS V14.00,2013-08-03 07:48:00,
2013-08-03 03:53:00,77.3,73.8,29.98,SSE,158,0.0,0.0,89,0.00,,SCT120,0.00,0.00,VWS V14.00,2013-08-03 07:53:00,
2013-08-03 03:58:00,77.3,73.8,29.98,SSE,157,0.0,1.0,89,0.00,,SCT120,0.00,0.00,VWS V14.00,2013-08-03 07:58:00,
2013-08-03 04:00:00,77.3,73.8,29.98,SSE,158,0.0,0.0,89,0.00,,SCT040,0.00,0.00,VWS V14.00,2013-08-03 08:00:00,
2013-08-03 04:03:00,77.3,73.8,29.98,SSE,158,0.0,0.0,89,0.00,,SCT120,0.00,0.00,VWS V14.00,2013-08-03 08:03:00,
2013-08-03 04:08:00,77.3,73.8,29.98,SSE,157,0.0,0.0,89,0.00,,SCT120,0.00,0.00,VWS V14.00,2013-08-03 08:08:00,
2013-08-03 04:13:00,77.3,73.8,29.98,SSE,158,0.0,0.0,89,0.00,,SCT120,0.00,0.00,VWS V14.00,2013-08-03 08:13:00,
2013-08-03 04:18:00,77.3,73.8,29.98,SSE,157,0.0,1.0,89,0.00,,SCT120,0.00,0.00,VWS V14.00,2013-08-03 08:18:00,
2013-08-03 04:23:00,77.3,73.8,29.98,SSE,157,0.0,0.0,89,0.00,,SCT120,0.00,0.00,VWS V14.00,2013-08-03 08:23:00,
2013-08-03 04:28:00,77.4,73.9,29.98,SSE,158,0.0,0.0,89,0.00,,SCT120,0.00,0.00,VWS V14.00,2013-08-03 08:28:00,
2013-08-03 04:30:00,77.3,73.8,29.98,SSE,157,0.0,0.0,89,0.00,,SCT040,0.00,0.00,VWS V14.00,2013-08-03 08:30:00,
2013-08-03 04:33:00,77.4,73.9,29.98,SSE,158,0.0,0.0,89,0.00,,SCT120,0.00,0.00,VWS V14.00,2013-08-03 08:33:00,
2013-08-03 04:38:00,77.4,73.9,29.99,SSE,157,0.0,0.0,89,0.00,,SCT120,0.00,0.00,VWS V14.00,2013-08-03 08:38:00,
2013-08-03 04:43:00,77.4,73.9,29.99,SSE,157,0.0,0.0,89,0.00,,SCT120,0.00,0.00,VWS V14.00,2013-08-03 08:43:00,
2013-08-03 04:48:00,77.5,74.0,29.99,SSE,157,0.0,0.0,89,0.00,,SCT120,0.00,0.00,VWS V14.00,2013-08-03 08:48:00,
2013-08-03 04:53:00,77.5,74.0,29.99,SSE,158,2.0,2.0,89,0.00,,SCT120,0.00,0.00,VWS V14.00,2013-08-03 08:53:00,
2013-08-03 04:58:00,77.5,74.0,29.99,SSE,158,0.0,1.0,89,0.00,,SCT120,0.00,0.00,VWS V14.00,2013-08-03 08:58:00,
2013-08-03 05:03:00,77.6,74.1,29.99,SSE,158,0.0,0.0,89,0.00,,SCT120,0.00,0.00,VWS V14.00,2013-08-03 09:03:00,
2013-08-03 05:08:00,77.5,74.0,29.99,SSE,158,0.0,0.0,89,0.00,,SCT120,0.00,0.00,VWS V14.00,2013-08-03 09:08:00,
2013-08-03 05:13:00,77.5,74.0,29.99,SSE,158,0.0,0.0,89,0.00,,SCT120,0.00,0.00,VWS V14.00,2013-08-03 09:13:00,
2013-08-03 05:18:00,77.5,74.0,29.99,SSE,158,0.0,0.0,89,0.00,,SCT120,0.00,0.00,VWS V14.00,2013-08-03 09:18:00,
2013-08-03 05:23:00,77.5,74.0,29.99,SSE,158,0.0,0.0,89,0.00,,SCT120,0.00,0.00,VWS V14.00,2013-08-03 09:23:00,
2013-08-03 05:28:00,77.5,74.0,29.99,SSE,158,0.0,0.0,89,0.00,,SCT120,0.00,0.00,VWS V14.00,2013-08-03 09:28:00,
2013-08-03 05:33:00,77.5,74.0,29.99,SSE,158,0.0,0.0,89,0.00,,SCT120,0.00,0.00,VWS V14.00,2013-08-03 09:33:00,
2013-08-03 05:38:00,77.5,74.0,29.98,SSE,158,0.0,0.0,89,0.00,,SCT120,0.00,0.00,VWS V14.00,2013-08-03 09:38:00,
2013-08-03 05:43:00,77.6,74.1,29.99,SSE,158,0.0,0.0,89,0.00,,SCT120,0.00,0.00,VWS V14.00,2013-08-03 09:43:00,
2013-08-03 05:48:00,77.6,74.1,29.99,SSE,157,0.0,0.0,89,0.00,,SCT120,0.00,0.00,VWS V14.00,2013-08-03 09:48:00,
2013-08-03 05:53:00,77.6,74.1,29.99,SSE,158,0.0,0.0,89,0.00,,SCT120,0.00,0.00,VWS V14.00,2013-08-03 09:53:00,
2013-08-03 05:58:00,77.6,74.1,29.99,SSE,158,0.0,0.0,89,0.00,,SCT120,0.00,0.00,VWS V14.00,2013-08-03 09:58:00,
2013-08-03 06:03:00,77.9,74.4,29.99,SSE,158,0.0,0.0,89,0.00,,SCT120,0.00,0.00,VWS V14.00,2013-08-03 10:03:00,
2013-08-03 06:08:00,77.9,74.4,29.99,SSE,158,0.0,0.0,89,0.00,,SCT120,0.00,0.00,VWS V14.00,2013-08-03 10:08:00,
2013-08-03 06:13:00,78.0,74.5,30.00,SSE,158,0.0,0.0,89,0.00,,SCT120,0.00,0.00,VWS V14.00,2013-08-03 10:13:00,
2013-08-03 06:18:00,78.0,74.5,30.00,SSE,158,0.0,0.0,89,0.00,,SCT120,0.00,0.00,VWS V14.00,2013-08-03 10:18:00,
2013-08-03 06:23:00,78.1,74.6,30.00,SSE,158,0.0,0.0,89,0.00,,SCT120,0.00,0.00,VWS V14.00,2013-08-03 10:23:00,
2013-08-03 06:28:00,78.0,74.5,30.00,SSE,157,0.0,0.0,89,0.00,,SCT120,0.00,0.00,VWS V14.00,2013-08-03 10:28:00,
2013-08-03 06:30:00,78.0,74.5,30.00,SSE,157,0.0,0.0,89,0.00,,SCT040,0.00,0.00,VWS V14.00,2013-08-03 10:30:00,
2013-08-03 06:33:00,78.0,74.5,30.01,SSE,158,0.0,0.0,89,0.00,,SCT120,0.00,0.00,VWS V14.00,2013-08-03 10:33:00,
2013-08-03 06:38:00,78.0,74.5,30.01,SSE,158,0.0,0.0,89,0.00,,SCT120,0.00,0.00,VWS V14.00,2013-08-03 10:38:00,
2013-08-03 06:43:00,77.9,74.4,30.01,SSE,157,0.0,0.0,89,0.00,,SCT120,0.00,0.00,VWS V14.00,2013-08-03 10:43:00,
2013-08-03 06:48:00,77.9,74.4,30.01,SSE,157,0.0,0.0,89,0.00,,SCT120,0.00,0.00,VWS V14.00,2013-08-03 10:48:00,
2013-08-03 06:53:00,77.9,74.4,30.02,SSE,158,0.0,0.0,89,0.00,,SCT120,0.00,0.00,VWS V14.00,2013-08-03 10:53:00,
2013-08-03 06:58:00,78.0,74.5,30.02,SSE,157,0.0,0.0,89,0.00,,SCT120,0.00,0.00,VWS V14.00,2013-08-03 10:58:00,
2013-08-03 07:03:00,78.2,74.7,30.02,SSE,158,0.0,0.0,89,0.00,,SCT120,0.00,0.00,VWS V14.00,2013-08-03 11:03:00,
2013-08-03 07:08:00,78.3,74.8,30.02,SSE,158,0.0,0.0,89,0.00,,SCT120,0.00,0.00,VWS V14.00,2013-08-03 11:08:00,
2013-08-03 07:13:00,78.4,74.9,30.02,SSE,157,0.0,0.0,89,0.00,,SCT120,0.00,0.00,VWS V14.00,2013-08-03 11:13:00,
2013-08-03 07:18:00,78.4,74.9,30.03,SSE,157,2.0,3.0,89,0.00,,SCT120,0.00,5.00,VWS V14.00,2013-08-03 11:18:00,
2013-08-03 07:24:00,78.3,74.8,30.03,SSE,157,2.0,5.0,89,0.00,,SCT120,0.00,5.00,VWS V14.00,2013-08-03 11:24:00,
2013-08-03 07:28:00,78.2,74.7,30.03,SSE,158,4.0,5.0,89,0.00,,SCT120,0.00,7.00,VWS V14.00,2013-08-03 11:28:00,
2013-08-03 07:30:00,78.1,74.6,30.03,SSE,157,2.0,4.0,89,0.00,,SCT040,0.00,7.00,VWS V14.00,2013-08-03 11:30:00,
2013-08-03 07:34:00,78.1,74.6,30.02,SSE,157,4.0,5.0,89,0.00,,SCT120,0.00,9.00,VWS V14.00,2013-08-03 11:34:00,
2013-08-03 07:38:00,78.1,74.6,30.02,SSE,158,0.0,4.0,89,0.00,,SCT120,0.00,11.00,VWS V14.00,2013-08-03 11:38:00,
2013-08-03 07:43:00,78.2,74.7,30.02,SSE,157,0.0,0.0,89,0.00,,SCT120,0.00,12.00,VWS V14.00,2013-08-03 11:43:00,
2013-08-03 07:48:00,78.4,74.9,30.02,SSE,158,0.0,0.0,89,0.00,,SCT120,0.00,14.00,VWS V14.00,2013-08-03 11:48:00,
2013-08-03 07:54:00,78.4,74.9,30.02,SSE,157,1.0,1.0,89,0.00,,SCT120,0.00,14.00,VWS V14.00,2013-08-03 11:54:00,
2013-08-03 07:59:00,78.5,75.0,30.03,SSE,157,3.0,5.0,89,0.00,,SCT120,0.00,14.00,VWS V14.00,2013-08-03 11:59:00,
2013-08-03 08:00:00,78.6,75.1,30.03,SSE,157,2.0,2.0,89,0.00,,SCT040,0.00,14.00,VWS V14.00,2013-08-03 12:00:00,
2013-08-03 08:03:00,78.6,75.1,30.03,SSE,158,0.0,3.0,89,0.00,,SCT120,0.00,14.00,VWS V14.00,2013-08-03 12:03:00,
2013-08-03 08:09:00,78.7,75.2,30.03,SSE,157,0.0,2.0,89,0.00,,SCT120,0.00,16.00,VWS V14.00,2013-08-03 12:09:00,
2013-08-03 08:14:00,78.9,75.1,30.04,SSE,158,0.0,3.0,88,0.00,,SCT120,0.00,18.00,VWS V14.00,2013-08-03 12:14:00,
2013-08-03 08:19:00,79.1,75.2,30.04,SSE,158,6.0,7.0,88,0.00,,SCT120,0.00,19.00,VWS V14.00,2013-08-03 12:19:00,
2013-08-03 08:24:00,79.3,75.4,30.04,SSE,161,1.0,5.0,88,0.00,,SCT120,0.00,21.00,VWS V14.00,2013-08-03 12:24:00,
2013-08-03 08:29:00,79.4,75.5,30.03,South,175,10.0,13.0,88,0.00,,SCT120,0.00,23.00,VWS V14.00,2013-08-03 12:29:00,
2013-08-03 08:30:00,79.4,75.2,30.04,South,178,9.0,9.0,87,0.00,,SCT040,0.00,23.00,VWS V14.00,2013-08-03 12:30:00,
2013-08-03 08:34:00,79.4,74.8,30.04,SSE,161,6.0,9.0,86,0.00,,SCT120,0.00,25.00,VWS V14.00,2013-08-03 12:34:00,
2013-08-03 08:39:00,79.0,73.8,30.04,SSE,157,9.0,14.0,84,0.00,,SCT120,0.00,26.00,VWS V14.00,2013-08-03 12:39:00,
2013-08-03 08:44:00,78.7,73.1,30.04,South,173,3.0,9.0,83,0.00,,SCT120,0.00,28.00,VWS V14.00,2013-08-03 12:44:00,
2013-08-03 08:49:00,78.5,72.9,30.05,SSE,162,4.0,7.0,83,0.00,,SCT120,0.00,32.00,VWS V14.00,2013-08-03 12:49:00,
2013-08-03 08:54:00,78.4,72.4,30.05,SSE,167,3.0,5.0,82,0.00,,SCT120,0.00,33.00,VWS V14.00,2013-08-03 12:54:00,
2013-08-03 08:59:00,78.5,72.6,30.05,SSE,167,2.0,3.0,82,0.00,,SCT120,0.00,35.00,VWS V14.00,2013-08-03 12:59:00,
2013-08-03 09:04:00,78.6,72.7,30.05,SSE,167,0.0,0.0,82,0.00,,SCT120,0.00,37.00,VWS V14.00,2013-08-03 13:04:00,
2013-08-03 09:09:00,78.7,72.8,30.05,SSE,167,0.0,0.0,82,0.00,,SCT120,0.00,42.00,VWS V14.00,2013-08-03 13:09:00,
2013-08-03 09:14:00,78.8,72.8,30.05,SSE,167,0.0,1.0,82,0.00,,SCT120,0.00,46.00,VWS V14.00,2013-08-03 13:14:00,
2013-08-03 09:19:00,79.0,73.0,30.05,SSE,167,0.0,0.0,82,0.00,,SCT120,0.00,47.00,VWS V14.00,2013-08-03 13:19:00,
2013-08-03 09:24:00,79.2,73.2,30.05,SSE,167,0.0,0.0,82,0.00,,SCT120,0.00,49.00,VWS V14.00,2013-08-03 13:24:00,
2013-08-03 09:29:00,79.4,73.4,30.05,SSE,167,0.0,0.0,82,0.00,,SCT120,0.00,51.00,VWS V14.00,2013-08-03 13:29:00,
2013-08-03 09:30:00,79.5,73.5,30.05,SSE,167,0.0,2.0,82,0.00,,SCT040,0.00,51.00,VWS V14.00,2013-08-03 13:30:00,
2013-08-03 09:34:00,79.7,73.7,30.05,SSE,167,0.0,3.0,82,0.00,,SCT024,0.00,49.00,VWS V14.00,2013-08-03 13:34:00,
2013-08-03 09:39:00,79.9,73.9,30.05,SSE,167,0.0,1.0,82,0.00,,SCT024,0.00,53.00,VWS V14.00,2013-08-03 13:39:00,
2013-08-03 09:44:00,80.2,74.2,30.05,SSE,167,0.0,3.0,82,0.00,,SCT024,0.00,53.00,VWS V14.00,2013-08-03 13:44:00,
2013-08-03 09:49:00,80.4,74.4,30.05,SSE,167,0.0,1.0,82,0.00,,SCT024,0.00,54.00,VWS V14.00,2013-08-03 13:49:00,
2013-08-03 09:54:00,80.7,74.3,30.05,SSE,168,0.0,1.0,81,0.00,,SCT024,0.00,56.00,VWS V14.00,2013-08-03 13:54:00,
2013-08-03 09:59:00,80.9,74.5,30.05,South,176,5.0,5.0,81,0.00,,SCT024,0.00,54.00,VWS V14.00,2013-08-03 13:59:00,
2013-08-03 10:00:00,81.1,74.7,30.05,South,176,0.0,0.0,81,0.00,,SCT040,0.00,54.00,VWS V14.00,2013-08-03 14:00:00,
2013-08-03 10:04:00,81.2,74.4,30.05,South,184,5.0,9.0,80,0.00,,SCT024,0.00,54.00,VWS V14.00,2013-08-03 14:04:00,
2013-08-03 10:09:00,81.4,74.6,30.05,South,188,3.0,4.0,80,0.00,,SCT024,0.00,56.00,VWS V14.00,2013-08-03 14:09:00,
2013-08-03 10:14:00,81.6,74.5,30.05,South,188,0.0,1.0,79,0.00,,SCT024,0.00,60.00,VWS V14.00,2013-08-03 14:14:00,
2013-08-03 10:19:00,81.8,74.7,30.05,South,188,6.0,6.0,79,0.00,,SCT024,0.00,63.00,VWS V14.00,2013-08-03 14:19:00,
2013-08-03 10:24:00,81.9,74.8,30.05,South,188,3.0,6.0,79,0.00,,SCT024,0.00,65.00,VWS V14.00,2013-08-03 14:24:00,
2013-08-03 10:29:00,82.0,74.8,30.05,South,188,4.0,4.0,79,0.00,,SCT024,0.00,67.00,VWS V14.00,2013-08-03 14:29:00,
2013-08-03 10:30:00,82.1,75.3,30.05,South,188,4.0,6.0,80,0.00,,SCT040,0.00,67.00,VWS V14.00,2013-08-03 14:30:00,
2013-08-03 10:34:00,82.2,75.4,30.06,South,188,0.0,2.0,80,0.00,,SCT024,0.00,67.00,VWS V14.00,2013-08-03 14:34:00,
2013-08-03 10:39:00,82.3,75.1,30.05,South,189,0.0,5.0,79,0.00,,SCT024,0.00,67.00,VWS V14.00,2013-08-03 14:39:00,
2013-08-03 10:44:00,82.5,75.7,30.06,South,189,1.0,5.0,80,0.00,,SCT024,0.00,65.00,VWS V14.00,2013-08-03 14:44:00,
2013-08-03 10:49:00,82.5,75.7,30.06,South,191,3.0,7.0,80,0.00,,SCT024,0.00,63.00,VWS V14.00,2013-08-03 14:49:00,
2013-08-03 10:54:00,82.6,75.8,30.06,South,191,0.0,5.0,80,0.00,,SCT024,0.00,62.00,VWS V14.00,2013-08-03 14:54:00,
2013-08-03 10:59:00,82.7,75.9,30.06,South,191,3.0,4.0,80,0.00,,SCT024,0.00,62.00,VWS V14.00,2013-08-03 14:59:00,
2013-08-03 11:04:00,82.7,75.5,30.06,South,191,2.0,5.0,79,0.00,,SCT024,0.00,60.00,VWS V14.00,2013-08-03 15:04:00,
2013-08-03 11:09:00,82.8,76.0,30.06,South,191,0.0,1.0,80,0.00,,SCT024,0.00,56.00,VWS V14.00,2013-08-03 15:09:00,
2013-08-03 11:14:00,82.9,75.7,30.06,South,191,4.0,4.0,79,0.00,,SCT024,0.00,51.00,VWS V14.00,2013-08-03 15:14:00,
2013-08-03 11:20:00,82.9,74.9,30.06,South,191,3.0,5.0,77,0.00,,SCT024,0.00,62.00,VWS V14.00,2013-08-03 15:20:00,
2013-08-03 11:25:00,82.9,74.9,30.06,South,191,0.0,2.0,77,0.00,,SCT024,0.00,62.00,VWS V14.00,2013-08-03 15:25:00,
2013-08-03 11:30:00,83.1,75.2,30.06,South,191,3.0,4.0,77,0.00,,SCT024,0.00,63.00,VWS V14.00,2013-08-03 15:30:00,
2013-08-03 11:35:00,83.2,75.6,30.06,SSW,192,2.0,7.0,78,0.00,,SCT024,0.00,65.00,VWS V14.00,2013-08-03 15:35:00,
2013-08-03 11:40:00,83.3,76.1,30.06,SSW,192,0.0,3.0,79,0.00,,SCT024,0.00,67.00,VWS V14.00,2013-08-03 15:40:00,
2013-08-03 11:45:00,83.4,76.2,30.06,SSW,192,5.0,5.0,79,0.00,,SCT024,0.00,69.00,VWS V14.00,2013-08-03 15:45:00,
2013-08-03 11:50:00,83.5,76.7,30.06,SSW,192,1.0,6.0,80,0.00,,SCT024,0.00,70.00,VWS V14.00,2013-08-03 15:50:00,
2013-08-03 11:55:00,83.6,76.8,30.06,South,174,0.0,3.0,80,0.00,,SCT024,0.00,72.00,VWS V14.00,2013-08-03 15:55:00,
2013-08-03 12:00:00,83.7,77.2,30.06,South,176,4.0,7.0,81,0.00,,SCT024,0.00,76.00,VWS V14.00,2013-08-03 16:00:00,
2013-08-03 12:05:00,83.8,77.7,30.06,South,177,0.0,0.0,82,0.00,,SCT024,0.00,79.00,VWS V14.00,2013-08-03 16:05:00,
2013-08-03 12:10:00,83.8,77.3,30.06,South,177,5.0,5.0,81,0.00,,SCT024,0.00,86.00,VWS V14.00,2013-08-03 16:10:00,
2013-08-03 12:15:00,83.9,77.8,30.06,South,177,0.0,5.0,82,0.00,,SCT024,0.00,91.00,VWS V14.00,2013-08-03 16:15:00,
2013-08-03 12:20:00,84.0,77.9,30.06,South,177,5.0,6.0,82,0.00,,SCT024,0.00,97.00,VWS V14.00,2013-08-03 16:20:00,
2013-08-03 12:25:00,84.0,77.9,30.06,South,184,3.0,6.0,82,0.00,,SCT024,0.00,98.00,VWS V14.00,2013-08-03 16:25:00,
2013-08-03 12:30:00,84.2,78.1,30.06,South,182,0.0,5.0,82,0.00,,SCT024,0.00,95.00,VWS V14.00,2013-08-03 16:30:00,
2013-08-03 12:35:00,84.3,77.8,30.06,South,182,3.0,3.0,81,0.00,,SCT024,0.00,90.00,VWS V14.00,2013-08-03 16:35:00,
2013-08-03 12:40:00,84.4,77.6,30.06,South,184,0.0,3.0,80,0.00,,SCT024,0.00,83.00,VWS V14.00,2013-08-03 16:40:00,
2013-08-03 12:45:00,84.5,77.7,30.06,South,187,0.0,7.0,80,0.00,,SCT024,0.00,79.00,VWS V14.00,2013-08-03 16:45:00,
2013-08-03 12:50:00,84.6,77.8,30.06,South,187,4.0,5.0,80,0.00,,SCT024,0.00,81.00,VWS V14.00,2013-08-03 16:50:00,
2013-08-03 12:55:00,84.5,77.3,30.06,South,174,3.0,5.0,79,0.00,,SCT024,0.00,86.00,VWS V14.00,2013-08-03 16:55:00,
2013-08-03 13:00:00,84.5,77.7,30.05,South,174,2.0,4.0,80,0.00,,SCT024,0.00,91.00,VWS V14.00,2013-08-03 17:00:00,
2013-08-03 13:05:00,84.6,77.8,30.06,South,173,4.0,5.0,80,0.00,,SCT024,0.00,98.00,VWS V14.00,2013-08-03 17:05:00,
2013-08-03 13:10:00,84.8,77.9,30.05,South,173,0.0,0.0,80,0.00,,SCT024,0.00,102.00,VWS V14.00,2013-08-03 17:10:00,
2013-08-03 13:15:00,85.1,77.9,30.05,South,173,2.0,5.0,79,0.00,,SCT024,0.00,102.00,VWS V14.00,2013-08-03 17:15:00,
2013-08-03 13:20:00,85.3,77.7,30.06,South,173,0.0,0.0,78,0.00,,SCT024,0.00,100.00,VWS V14.00,2013-08-03 17:20:00,
2013-08-03 13:25:00,85.4,77.8,30.06,South,173,0.0,2.0,78,0.00,,SCT024,0.00,100.00,VWS V14.00,2013-08-03 17:25:00,
2013-08-03 13:30:00,85.5,77.9,30.05,South,173,0.0,1.0,78,0.00,,SCT024,0.00,107.00,VWS V14.00,2013-08-03 17:30:00,
2013-08-03 13:35:00,85.7,78.1,30.05,South,173,3.0,3.0,78,0.00,,FEW040,0.00,100.00,VWS V14.00,2013-08-03 17:35:00,
2013-08-03 13:40:00,85.8,77.8,30.05,South,173,0.0,0.0,77,0.00,,FEW040,0.00,100.00,VWS V14.00,2013-08-03 17:40:00,
2013-08-03 13:45:00,85.7,78.1,30.04,South,173,0.0,0.0,78,0.00,,FEW040,0.00,105.00,VWS V14.00,2013-08-03 17:45:00,
2013-08-03 13:50:00,85.8,77.8,30.04,South,173,0.0,1.0,77,0.00,,FEW040,0.00,102.00,VWS V14.00,2013-08-03 17:50:00,
2013-08-03 13:55:00,85.7,77.7,30.05,South,173,0.0,0.0,77,0.00,,FEW040,0.00,104.00,VWS V14.00,2013-08-03 17:55:00,
2013-08-03 14:00:00,85.8,77.0,30.04,South,173,0.0,0.0,75,0.00,,FEW040,0.00,130.00,VWS V14.00,2013-08-03 18:00:00,
2013-08-03 14:05:00,86.1,77.7,30.04,South,173,0.0,0.0,76,0.00,,FEW040,0.00,151.00,VWS V14.00,2013-08-03 18:05:00,
2013-08-03 14:10:00,86.5,77.2,30.04,South,173,0.0,1.0,74,0.00,,FEW040,0.00,155.00,VWS V14.00,2013-08-03 18:10:00,
2013-08-03 14:15:00,87.1,77.4,30.04,South,173,0.0,3.0,73,0.00,,FEW040,0.00,125.00,VWS V14.00,2013-08-03 18:15:00,
2013-08-03 14:20:00,87.4,77.7,30.04,South,182,0.0,4.0,73,0.00,,FEW040,0.00,102.00,VWS V14.00,2013-08-03 18:20:00,
2013-08-03 14:25:00,87.3,77.6,30.05,South,182,3.0,5.0,73,0.00,,FEW040,0.00,69.00,VWS V14.00,2013-08-03 18:25:00,
2013-08-03 14:30:00,85.2,74.7,30.06,West,277,10.0,15.0,71,0.00,,FEW040,0.00,14.00,VWS V14.00,2013-08-03 18:30:00,
2013-08-03 14:35:00,81.4,72.7,30.06,West,267,9.0,11.0,75,0.00,,SCT040,0.00,0.00,VWS V14.00,2013-08-03 18:35:00,
2013-08-03 15:00:00,72.1,68.0,30.09,West,270,8.0,33.0,87,3.72,,SCT040,0.40,1.00,VWS V14.00,2013-08-03 19:00:00,
2013-08-03 15:30:00,71.8,68.4,30.08,East,90,4.0,10.0,89,0.24,,SCT040,0.43,0.00,VWS V14.00,2013-08-03 19:30:00,
2013-08-03 16:30:00,72.4,69.3,30.05,East,90,0.0,4.0,90,0.00,,SCT040,0.45,6.00,VWS V14.00,2013-08-03 20:30:00,
2013-08-03 17:00:00,73.4,70.3,30.06,East,90,0.0,0.0,90,0.07,,SCT040,0.48,11.00,VWS V14.00,2013-08-03 21:00:00,
2013-08-03 17:30:00,73.4,70.3,30.06,East,90,0.0,0.0,90,0.06,,SCT040,0.49,15.00,VWS V14.00,2013-08-03 21:30:00,
2013-08-03 18:00:00,73.7,70.6,30.04,East,90,0.0,0.0,90,0.00,,SCT040,0.50,22.00,VWS V14.00,2013-08-03 22:00:00,
2013-08-03 18:30:00,74.3,71.2,30.04,East,90,0.0,0.0,90,0.00,,SCT040,0.50,20.00,VWS V14.00,2013-08-03 22:30:00,
2013-08-03 19:30:00,74.7,71.6,30.04,East,90,0.0,0.0,90,0.00,,SCT040,0.50,2.00,VWS V14.00,2013-08-03 23:30:00,
2013-08-03 20:00:00,75.0,71.9,30.05,East,90,0.0,1.0,90,0.00,,SCT040,0.50,0.00,VWS V14.00,2013-08-04 00:00:00,
2013-08-03 20:30:00,74.9,71.8,30.05,East,90,0.0,0.0,90,0.00,,SCT040,0.50,0.00,VWS V14.00,2013-08-04 00:30:00,
2013-08-03 21:00:00,74.9,71.8,30.05,East,90,0.0,0.0,90,0.00,,SCT040,0.50,0.00,VWS V14.00,2013-08-04 01:00:00,
2013-08-03 21:30:00,75.7,72.6,30.05,East,90,0.0,0.0,90,0.00,,SCT040,0.50,0.00,VWS V14.00,2013-08-04 01:30:00,
2013-08-03 22:00:00,75.4,72.3,30.06,East,90,0.0,0.0,90,0.00,,SCT040,0.50,0.00,VWS V14.00,2013-08-04 02:00:00,
2013-08-03 22:30:00,76.0,72.9,30.07,East,90,0.0,2.0,90,0.00,,SCT040,0.50,0.00,VWS V14.00,2013-08-04 02:30:00,
2013-08-03 23:00:00,75.9,72.8,30.08,East,90,0.0,2.0,90,0.00,,SCT040,0.50,0.00,VWS V14.00,2013-08-04 03:00:00,
2013-08-03 23:30:00,76.0,72.9,30.07,East,90,0.0,3.0,90,0.00,,SCT040,0.50,0.00,VWS V14.00,2013-08-04 03:30:00,